Precipitable_Water
0.60 0.57 0.55 0.54 0.53 0.52 0.53 0.53 0.54 0.56 0.58 0.59 0.58 0.57 0.57 0.56 0.58 0.60 0.63 0.65 0.66 0.68 0.69 0.69 0.68 0.66 0.63 0.62 0.62 0.63 0.63 0.57 0.42 0.39 0.38 0.41 0.48 0.51 0.52 0.56 0.56 0.53 0.47 0.44 0.42 0.37 0.35 0.38 0.35 0.38 0.36 0.37 0.40 0.35 0.43 0.38 0.35 0.38 0.31 0.30 0.26 0.25 0.23 0.25 0.22 0.22 0.25 0.22 0.25 0.26 0.28 0.26 0.24 0.27 0.28 0.31 0.31 0.33 0.35 0.35 0.35 0.37 0.36 0.37 0.37 0.36 0.35 0.35
0.60 0.58 0.56 0.55 0.54 0.52 0.52 0.54 0.55 0.56 0.59 0.59 0.59 0.58 0.58 0.57 0.57 0.59 0.62 0.63 0.66 0.69 0.68 0.68 0.68 0.66 0.63 0.62 0.63 0.64 0.60 0.57 0.41 0.40 0.39 0.52 0.54 0.57 0.57 0.57 0.55 0.50 0.45 0.36 0.32 0.31 0.29 0.30 0.31 0.34 0.32 0.33 0.43 0.33 0.39 0.36 0.39 0.28 0.26 0.28 0.24 0.26 0.27 0.28 0.25 0.25 0.24 0.24 0.25 0.27 0.27 0.26 0.26 0.27 0.28 0.28 0.29 0.32 0.31 0.32 0.34 0.32 0.33 0.34 0.34 0.33 0.31 0.31
0.61 0.58 0.56 0.55 0.55 0.53 0.52 0.54 0.54 0.56 0.57 0.59 0.58 0.59 0.59 0.57 0.56 0.58 0.61 0.61 0.66 0.68 0.67 0.67 0.67 0.66 0.64 0.63 0.62 0.64 0.56 0.49 0.42 0.34 0.44 0.55 0.58 0.60 0.58 0.54 0.55 0.53 0.47 0.40 0.38 0.35 0.33 0.32 0.32 0.32 0.33 0.31 0.40 0.35 0.35 0.37 0.35 0.32 0.26 0.26 0.27 0.30 0.29 0.29 0.27 0.26 0.26 0.27 0.26 0.25 0.24 0.27 0.28 0.28 0.30 0.27 0.29 0.31 0.29 0.29 0.31 0.30 0.29 0.29 0.30 0.30 0.29 0.29
0.61 0.58 0.56 0.55 0.55 0.55 0.53 0.53 0.54 0.55 0.57 0.58 0.58 0.59 0.60 0.57 0.55 0.58 0.60 0.61 0.64 0.68 0.66 0.66 0.66 0.66 0.65 0.63 0.64 0.61 0.53 0.50 0.34 0.39 0.49 0.56 0.57 0.58 0.56 0.55 0.54 0.53 0.50 0.46 0.43 0.39 0.39 0.38 0.38 0.37 0.34 0.34 0.37 0.37 0.33 0.37 0.31 0.32 0.28 0.27 0.28 0.30 0.27 0.28 0.28 0.27 0.28 0.29 0.26 0.25 0.27 0.26 0.28 0.29 0.29 0.29 0.28 0.29 0.30 0.33 0.31 0.28 0.27 0.27 0.28 0.29 0.29 0.28
0.61 0.58 0.55 0.54 0.54 0.55 0.55 0.54 0.53 0.54 0.57 0.59 0.59 0.60 0.61 0.59 0.56 0.56 0.59 0.60 0.63 0.67 0.66 0.66 0.65 0.66 0.65 0.64 0.61 0.60 0.48 0.39 0.34 0.47 0.52 0.55 0.57 0.57 0.56 0.54 0.53 0.52 0.50 0.48 0.46 0.45 0.43 0.41 0.39 0.38 0.36 0.30 0.31 0.35 0.35 0.36 0.33 0.27 0.28 0.31 0.30 0.28 0.27 0.30 0.29 0.28 0.28 0.29 0.27 0.26 0.25 0.25 0.30 0.30 0.29 0.30 0.27 0.27 0.30 0.31 0.31 0.29 0.28 0.27 0.28 0.29 0.29 0.29
0.63 0.59 0.55 0.54 0.53 0.54 0.55 0.55 0.53 0.54 0.57 0.58 0.59 0.60 0.61 0.60 0.57 0.56 0.57 0.59 0.61 0.67 0.67 0.65 0.65 0.65 0.65 0.62 0.60 0.58 0.47 0.24 0.44 0.46 0.55 0.56 0.56 0.56 0.53 0.52 0.52 0.53 0.52 0.49 0.46 0.45 0.42 0.40 0.38 0.34 0.30 0.28 0.29 0.27 0.34 0.33 0.32 0.23 0.31 0.31 0.31 0.29 0.26 0.29 0.29 0.28 0.28 0.27 0.25 0.24 0.26 0.29 0.29 0.29 0.32 0.32 0.30 0.32 0.34 0.33 0.31 0.29 0.29 0.29 0.29 0.29 0.28 0.27
0.63 0.60 0.57 0.55 0.55 0.54 0.54 0.55 0.54 0.53 0.55 0.58 0.59 0.60 0.61 0.61 0.59 0.56 0.55 0.58 0.61 0.66 0.66 0.64 0.64 0.65 0.64 0.62 0.62 0.52 0.40 0.37 0.48 0.51 0.54 0.55 0.54 0.53 0.53 0.53 0.52 0.51 0.49 0.45 0.42 0.42 0.40 0.41 0.36 0.32 0.32 0.32 0.34 0.30 0.31 0.30 0.33 0.28 0.27 0.32 0.30 0.29 0.27 0.29 0.28 0.29 0.28 0.27 0.26 0.26 0.30 0.28 0.29 0.26 0.33 0.31 0.34 0.34 0.34 0.33 0.30 0.30 0.29 0.29 0.28 0.28 0.27 0.27
0.63 0.60 0.58 0.57 0.56 0.56 0.55 0.56 0.54 0.52 0.53 0.56 0.59 0.60 0.60 0.61 0.60 0.56 0.55 0.57 0.61 0.66 0.66 0.63 0.63 0.63 0.64 0.61 0.58 0.42 0.38 0.36 0.46 0.53 0.54 0.53 0.52 0.52 0.52 0.53 0.52 0.49 0.47 0.43 0.43 0.41 0.46 0.41 0.35 0.36 0.35 0.31 0.35 0.29 0.31 0.29 0.30 0.29 0.29 0.32 0.31 0.30 0.30 0.29 0.28 0.28 0.29 0.29 0.28 0.27 0.27 0.28 0.30 0.30 0.33 0.31 0.34 0.34 0.34 0.32 0.31 0.30 0.30 0.29 0.28 0.27 0.27 0.27
0.63 0.61 0.59 0.58 0.58 0.57 0.58 0.57 0.55 0.53 0.52 0.53 0.56 0.58 0.59 0.60 0.59 0.56 0.54 0.56 0.60 0.65 0.64 0.62 0.61 0.61 0.61 0.53 0.44 0.40 0.35 0.48 0.50 0.53 0.52 0.51 0.51 0.52 0.52 0.47 0.50 0.48 0.47 0.48 0.46 0.44 0.44 0.40 0.38 0.39 0.32 0.34 0.37 0.30 0.33 0.29 0.29 0.33 0.31 0.31 0.29 0.29 0.32 0.31 0.29 0.29 0.30 0.30 0.27 0.23 0.26 0.30 0.32 0.34 0.31 0.33 0.34 0.34 0.34 0.32 0.32 0.31 0.30 0.28 0.28 0.27 0.27 0.26
0.62 0.60 0.59 0.58 0.57 0.57 0.59 0.59 0.57 0.54 0.53 0.52 0.54 0.55 0.56 0.58 0.58 0.55 0.52 0.55 0.58 0.64 0.63 0.60 0.60 0.60 0.54 0.45 0.47 0.33 0.43 0.55 0.52 0.53 0.53 0.52 0.52 0.50 0.49 0.49 0.47 0.48 0.46 0.47 0.48 0.45 0.43 0.41 0.41 0.44 0.43 0.37 0.40 0.34 0.36 0.33 0.31 0.35 0.30 0.29 0.29 0.30 0.32 0.33 0.30 0.30 0.31 0.29 0.28 0.25 0.24 0.29 0.33 0.30 0.26 0.34 0.35 0.36 0.35 0.33 0.33 0.31 0.29 0.28 0.28 0.27 0.27 0.25
0.61 0.58 0.57 0.57 0.56 0.56 0.59 0.60 0.59 0.57 0.54 0.54 0.53 0.52 0.53 0.55 0.56 0.54 0.50 0.53 0.56 0.62 0.62 0.59 0.59 0.57 0.50 0.50 0.38 0.34 0.55 0.54 0.52 0.53 0.54 0.53 0.51 0.47 0.46 0.47 0.49 0.45 0.47 0.50 0.50 0.50 0.48 0.47 0.48 0.45 0.46 0.37 0.37 0.36 0.36 0.37 0.37 0.33 0.32 0.31 0.32 0.33 0.34 0.33 0.33 0.33 0.32 0.31 0.31 0.27 0.26 0.30 0.31 0.30 0.28 0.32 0.36 0.36 0.34 0.33 0.32 0.31 0.29 0.28 0.27 0.26 0.26 0.25
0.60 0.58 0.56 0.56 0.54 0.55 0.58 0.59 0.59 0.59 0.59 0.57 0.55 0.53 0.53 0.55 0.55 0.53 0.48 0.50 0.54 0.60 0.61 0.59 0.59 0.54 0.53 0.46 0.38 0.39 0.54 0.51 0.52 0.54 0.54 0.52 0.50 0.50 0.51 0.50 0.49 0.48 0.47 0.47 0.52 0.54 0.52 0.48 0.47 0.43 0.35 0.41 0.33 0.36 0.37 0.40 0.36 0.34 0.33 0.28 0.31 0.33 0.32 0.34 0.32 0.33 0.34 0.32 0.33 0.31 0.26 0.26 0.28 0.26 0.32 0.35 0.37 0.35 0.34 0.32 0.31 0.29 0.29 0.28 0.26 0.25 0.26 0.26
0.59 0.57 0.56 0.55 0.54 0.53 0.56 0.58 0.58 0.59 0.60 0.60 0.57 0.54 0.54 0.54 0.53 0.50 0.46 0.47 0.50 0.55 0.59 0.57 0.58 0.59 0.49 0.38 0.40 0.52 0.54 0.53 0.52 0.54 0.53 0.52 0.53 0.57 0.55 0.53 0.51 0.50 0.50 0.50 0.51 0.54 0.53 0.50 0.48 0.41 0.44 0.38 0.35 0.32 0.37 0.36 0.33 0.35 0.34 0.31 0.30 0.31 0.30 0.35 0.36 0.36 0.34 0.34 0.34 0.31 0.21 0.24 0.26 0.30 0.34 0.36 0.34 0.33 0.31 0.31 0.31 0.30 0.28 0.27 0.26 0.25 0.25 0.26
0.60 0.58 0.57 0.56 0.54 0.53 0.55 0.57 0.57 0.58 0.59 0.59 0.55 0.52 0.52 0.51 0.48 0.45 0.42 0.44 0.48 0.52 0.56 0.56 0.57 0.52 0.45 0.38 0.45 0.53 0.54 0.56 0.55 0.52 0.49 0.50 0.47 0.50 0.54 0.53 0.52 0.52 0.54 0.53 0.55 0.56 0.52 0.53 0.49 0.44 0.47 0.39 0.34 0.41 0.36 0.36 0.37 0.32 0.34 0.34 0.29 0.28 0.27 0.33 0.33 0.34 0.31 0.35 0.36 0.33 0.22 0.22 0.26 0.32 0.35 0.35 0.33 0.32 0.31 0.31 0.30 0.28 0.28 0.27 0.26 0.25 0.25 0.25
0.60 0.59 0.58 0.56 0.54 0.53 0.54 0.55 0.55 0.56 0.58 0.56 0.53 0.53 0.52 0.50 0.46 0.42 0.39 0.44 0.46 0.49 0.49 0.54 0.58 0.48 0.41 0.39 0.52 0.56 0.58 0.59 0.50 0.48 0.53 0.46 0.43 0.44 0.50 0.49 0.47 0.50 0.52 0.54 0.55 0.57 0.56 0.54 0.49 0.40 0.38 0.43 0.39 0.36 0.33 0.33 0.34 0.33 0.29 0.28 0.31 0.27 0.28 0.31 0.34 0.34 0.30 0.33 0.35 0.31 0.23 0.23 0.26 0.30 0.32 0.33 0.33 0.33 0.31 0.30 0.29 0.28 0.27 0.27 0.26 0.25 0.25 0.25
0.62 0.60 0.59 0.58 0.55 0.54 0.55 0.55 0.55 0.56 0.56 0.54 0.52 0.52 0.49 0.50 0.48 0.40 0.41 0.42 0.45 0.46 0.50 0.45 0.46 0.44 0.38 0.33 0.46 0.61 0.55 0.47 0.47 0.54 0.55 0.51 0.45 0.40 0.44 0.44 0.47 0.50 0.52 0.52 0.57 0.57 0.56 0.53 0.43 0.42 0.39 0.38 0.35 0.33 0.31 0.30 0.30 0.32 0.29 0.27 0.27 0.28 0.28 0.27 0.32 0.34 0.34 0.33 0.33 0.30 0.24 0.26 0.26 0.31 0.33 0.34 0.33 0.33 0.31 0.30 0.29 0.28 0.27 0.27 0.26 0.25 0.25 0.24
0.62 0.62 0.60 0.59 0.57 0.56 0.56 0.57 0.56 0.55 0.54 0.52 0.52 0.48 0.47 0.50 0.46 0.42 0.42 0.45 0.45 0.46 0.44 0.38 0.43 0.45 0.29 0.48 0.56 0.45 0.45 0.49 0.58 0.55 0.51 0.54 0.48 0.44 0.43 0.43 0.42 0.46 0.54 0.53 0.54 0.54 0.54 0.48 0.50 0.45 0.41 0.34 0.34 0.31 0.28 0.28 0.27 0.30 0.30 0.26 0.28 0.26 0.26 0.25 0.31 0.33 0.34 0.33 0.30 0.32 0.27 0.26 0.29 0.31 0.33 0.33 0.32 0.31 0.29 0.29 0.29 0.28 0.27 0.26 0.25 0.25 0.25 0.25
0.63 0.63 0.62 0.61 0.58 0.58 0.58 0.57 0.58 0.56 0.54 0.52 0.50 0.47 0.45 0.46 0.44 0.43 0.45 0.44 0.44 0.43 0.40 0.46 0.48 0.38 0.32 0.45 0.36 0.41 0.50 0.48 0.51 0.51 0.52 0.54 0.50 0.45 0.42 0.41 0.42 0.44 0.46 0.47 0.53 0.44 0.50 0.42 0.45 0.36 0.36 0.36 0.31 0.29 0.26 0.24 0.27 0.28 0.29 0.27 0.27 0.28 0.27 0.25 0.25 0.30 0.33 0.33 0.30 0.30 0.28 0.27 0.29 0.30 0.31 0.31 0.31 0.30 0.29 0.28 0.28 0.27 0.27 0.26 0.26 0.26 0.25 0.25
0.63 0.63 0.63 0.62 0.59 0.58 0.59 0.59 0.59 0.57 0.53 0.53 0.52 0.49 0.51 0.44 0.43 0.43 0.35 0.31 0.26 0.27 0.22 0.26 0.26 0.19 0.21 0.35 0.46 0.47 0.48 0.51 0.53 0.51 0.47 0.45 0.47 0.46 0.46 0.46 0.45 0.43 0.40 0.40 0.42 0.43 0.43 0.39 0.39 0.36 0.32 0.32 0.31 0.32 0.30 0.30 0.30 0.28 0.27 0.27 0.26 0.24 0.25 0.26 0.29 0.32 0.33 0.30 0.29 0.28 0.25 0.26 0.28 0.28 0.29 0.30 0.31 0.29 0.28 0.28 0.28 0.27 0.27 0.26 0.26 0.26 0.25 0.23
0.64 0.64 0.64 0.62 0.59 0.59 0.59 0.59 0.60 0.56 0.54 0.51 0.47 0.40 0.33 0.25 0.24 0.27 0.30 0.25 0.23 0.21 0.22 0.24 0.31 0.34 0.37 0.40 0.44 0.48 0.54 0.56 0.44 0.48 0.47 0.47 0.44 0.43 0.40 0.44 0.43 0.44 0.41 0.34 0.38 0.42 0.41 0.33 0.32 0.31 0.30 0.32 0.33 0.35 0.34 0.33 0.31 0.30 0.28 0.28 0.27 0.27 0.27 0.30 0.30 0.32 0.34 0.30 0.29 0.28 0.26 0.26 0.26 0.28 0.29 0.29 0.30 0.29 0.28 0.27 0.27 0.27 0.27 0.27 0.27 0.26 0.24 0.22
0.63 0.64 0.65 0.63 0.60 0.59 0.60 0.58 0.60 0.56 0.54 0.54 0.46 0.31 0.22 0.24 0.19 0.17 0.22 0.23 0.29 0.31 0.27 0.30 0.33 0.31 0.33 0.44 0.46 0.42 0.40 0.44 0.46 0.44 0.43 0.47 0.46 0.43 0.35 0.42 0.38 0.34 0.38 0.41 0.40 0.41 0.38 0.32 0.31 0.32 0.31 0.31 0.34 0.36 0.35 0.34 0.32 0.30 0.29 0.28 0.26 0.27 0.26 0.30 0.30 0.32 0.33 0.28 0.26 0.28 0.25 0.25 0.27 0.27 0.29 0.30 0.30 0.28 0.28 0.27 0.27 0.27 0.27 0.27 0.26 0.25 0.23 0.21
0.63 0.64 0.65 0.63 0.59 0.59 0.59 0.58 0.59 0.56 0.53 0.53 0.41 0.30 0.30 0.32 0.38 0.41 0.33 0.18 0.28 0.32 0.35 0.34 0.37 0.32 0.42 0.45 0.48 0.46 0.45 0.37 0.40 0.43 0.45 0.44 0.41 0.35 0.38 0.38 0.35 0.34 0.42 0.43 0.37 0.32 0.32 0.30 0.32 0.33 0.33 0.35 0.36 0.35 0.36 0.34 0.32 0.32 0.30 0.30 0.28 0.29 0.31 0.32 0.31 0.32 0.32 0.29 0.26 0.26 0.24 0.25 0.27 0.28 0.30 0.30 0.29 0.29 0.28 0.28 0.27 0.27 0.28 0.27 0.25 0.24 0.22 0.21
0.64 0.65 0.65 0.63 0.59 0.58 0.58 0.58 0.58 0.55 0.50 0.42 0.34 0.35 0.32 0.44 0.48 0.52 0.44 0.31 0.22 0.36 0.35 0.33 0.30 0.32 0.36 0.44 0.47 0.48 0.37 0.35 0.31 0.38 0.38 0.43 0.38 0.35 0.37 0.35 0.36 0.38 0.42 0.36 0.29 0.29 0.28 0.31 0.34 0.38 0.37 0.36 0.34 0.35 0.36 0.35 0.34 0.33 0.32 0.30 0.27 0.29 0.28 0.25 0.30 0.31 0.31 0.27 0.24 0.25 0.24 0.26 0.28 0.29 0.29 0.30 0.28 0.28 0.29 0.29 0.29 0.29 0.27 0.26 0.24 0.23 0.23 0.21
0.64 0.65 0.65 0.61 0.58 0.57 0.58 0.57 0.58 0.48 0.50 0.42 0.37 0.38 0.47 0.52 0.56 0.51 0.40 0.22 0.19 0.27 0.32 0.37 0.37 0.36 0.36 0.37 0.49 0.42 0.35 0.36 0.34 0.32 0.42 0.41 0.34 0.39 0.36 0.37 0.36 0.36 0.35 0.33 0.33 0.31 0.31 0.35 0.39 0.37 0.36 0.35 0.33 0.35 0.34 0.32 0.31 0.34 0.32 0.29 0.29 0.31 0.31 0.29 0.28 0.30 0.30 0.29 0.30 0.27 0.24 0.22 0.25 0.26 0.27 0.28 0.29 0.28 0.28 0.29 0.29 0.29 0.28 0.26 0.25 0.23 0.23 0.21
0.65 0.66 0.65 0.60 0.57 0.59 0.57 0.61 0.44 0.43 0.56 0.52 0.41 0.49 0.49 0.54 0.56 0.54 0.33 0.24 0.26 0.24 0.46 0.39 0.44 0.42 0.45 0.54 0.50 0.38 0.37 0.36 0.35 0.38 0.41 0.39 0.36 0.36 0.35 0.43 0.37 0.32 0.34 0.34 0.34 0.32 0.33 0.38 0.39 0.35 0.36 0.35 0.35 0.34 0.34 0.34 0.31 0.31 0.34 0.34 0.34 0.34 0.31 0.31 0.30 0.28 0.25 0.24 0.29 0.24 0.19 0.17 0.23 0.25 0.25 0.26 0.27 0.27 0.27 0.27 0.26 0.27 0.27 0.25 0.24 0.23 0.23 0.21
0.67 0.67 0.65 0.58 0.55 0.59 0.65 0.48 0.42 0.48 0.48 0.41 0.45 0.50 0.46 0.53 0.61 0.54 0.33 0.17 0.14 0.25 0.35 0.27 0.47 0.35 0.52 0.40 0.47 0.41 0.37 0.29 0.38 0.40 0.40 0.41 0.45 0.38 0.38 0.35 0.37 0.30 0.33 0.31 0.31 0.33 0.33 0.36 0.36 0.35 0.35 0.35 0.35 0.35 0.37 0.38 0.33 0.32 0.32 0.38 0.36 0.34 0.32 0.30 0.29 0.27 0.22 0.21 0.25 0.27 0.20 0.17 0.24 0.23 0.25 0.26 0.27 0.26 0.26 0.26 0.26 0.27 0.25 0.24 0.23 0.23 0.22 0.21
0.68 0.68 0.67 0.59 0.53 0.61 0.47 0.40 0.48 0.51 0.37 0.46 0.50 0.51 0.48 0.46 0.64 0.51 0.25 0.19 0.14 0.31 0.28 0.42 0.36 0.42 0.46 0.43 0.40 0.38 0.20 0.26 0.39 0.40 0.40 0.45 0.38 0.44 0.31 0.32 0.34 0.34 0.32 0.32 0.31 0.28 0.33 0.34 0.37 0.38 0.35 0.33 0.34 0.34 0.40 0.39 0.35 0.30 0.39 0.38 0.36 0.33 0.30 0.29 0.28 0.26 0.25 0.27 0.26 0.27 0.24 0.19 0.18 0.21 0.26 0.27 0.27 0.26 0.25 0.25 0.25 0.25 0.24 0.23 0.23 0.22 0.22 0.20
0.69 0.70 0.69 0.59 0.53 0.58 0.49 0.50 0.46 0.40 0.39 0.47 0.55 0.48 0.53 0.56 0.56 0.55 0.28 0.11 0.10 0.42 0.28 0.34 0.39 0.57 0.42 0.42 0.41 0.31 0.28 0.33 0.28 0.33 0.39 0.42 0.42 0.36 0.35 0.32 0.32 0.32 0.33 0.33 0.25 0.36 0.37 0.36 0.36 0.34 0.34 0.33 0.34 0.39 0.42 0.42 0.35 0.34 0.37 0.36 0.34 0.33 0.30 0.30 0.28 0.25 0.25 0.23 0.20 0.23 0.23 0.19 0.17 0.21 0.26 0.28 0.26 0.25 0.24 0.24 0.24 0.24 0.23 0.23 0.23 0.22 0.21 0.20
0.70 0.72 0.70 0.60 0.56 0.57 0.59 0.49 0.44 0.41 0.52 0.53 0.52 0.51 0.51 0.58 0.47 0.25 0.19 0.11 0.37 0.30 0.51 0.30 0.53 0.43 0.38 0.41 0.35 0.36 0.34 0.35 0.28 0.33 0.39 0.39 0.42 0.37 0.30 0.34 0.33 0.31 0.33 0.33 0.29 0.34 0.37 0.36 0.36 0.36 0.34 0.32 0.38 0.41 0.43 0.41 0.35 0.38 0.38 0.38 0.36 0.33 0.31 0.30 0.27 0.25 0.25 0.21 0.18 0.21 0.22 0.19 0.18 0.23 0.25 0.27 0.25 0.24 0.23 0.22 0.23 0.23 0.23 0.23 0.22 0.21 0.21 0.20
0.71 0.73 0.71 0.59 0.63 0.65 0.54 0.58 0.47 0.55 0.56 0.54 0.51 0.52 0.52 0.48 0.34 0.20 0.17 0.10 0.35 0.22 0.31 0.37 0.32 0.29 0.34 0.29 0.29 0.33 0.30 0.33 0.35 0.34 0.36 0.34 0.36 0.40 0.39 0.40 0.33 0.31 0.30 0.35 0.33 0.35 0.36 0.40 0.40 0.36 0.33 0.36 0.40 0.42 0.43 0.41 0.40 0.41 0.39 0.36 0.34 0.33 0.31 0.30 0.29 0.27 0.22 0.17 0.19 0.21 0.23 0.21 0.17 0.21 0.24 0.23 0.23 0.24 0.23 0.22 0.22 0.23 0.23 0.22 0.22 0.21 0.21 0.20
0.72 0.73 0.72 0.63 0.52 0.55 0.48 0.43 0.55 0.55 0.55 0.56 0.52 0.49 0.44 0.33 0.20 0.14 0.10 0.13 0.24 0.27 0.31 0.29 0.27 0.36 0.29 0.26 0.24 0.30 0.31 0.30 0.29 0.31 0.29 0.32 0.31 0.35 0.33 0.30 0.32 0.28 0.29 0.30 0.30 0.33 0.34 0.36 0.36 0.37 0.43 0.41 0.42 0.40 0.44 0.44 0.43 0.41 0.37 0.35 0.33 0.30 0.30 0.27 0.26 0.25 0.19 0.17 0.21 0.22 0.22 0.22 0.17 0.19 0.22 0.24 0.26 0.25 0.23 0.22 0.22 0.22 0.22 0.22 0.22 0.21 0.20 0.20
0.73 0.73 0.72 0.64 0.60 0.57 0.45 0.45 0.61 0.56 0.54 0.53 0.49 0.35 0.30 0.17 0.27 0.12 0.11 0.26 0.12 0.27 0.23 0.24 0.31 0.30 0.28 0.30 0.28 0.28 0.26 0.30 0.31 0.29 0.27 0.27 0.27 0.26 0.27 0.23 0.27 0.22 0.22 0.26 0.25 0.33 0.32 0.35 0.39 0.41 0.44 0.42 0.40 0.39 0.42 0.44 0.44 0.42 0.39 0.36 0.29 0.26 0.26 0.22 0.22 0.20 0.19 0.19 0.21 0.22 0.21 0.19 0.18 0.22 0.22 0.22 0.23 0.23 0.23 0.23 0.23 0.22 0.22 0.22 0.22 0.21 0.21 0.19
0.72 0.73 0.69 0.69 0.63 0.60 0.61 0.61 0.63 0.58 0.54 0.50 0.39 0.32 0.23 0.16 0.11 0.16 0.15 0.19 0.14 0.30 0.26 0.34 0.27 0.26 0.27 0.25 0.24 0.27 0.31 0.23 0.30 0.29 0.29 0.31 0.29 0.28 0.31 0.29 0.31 0.29 0.21 0.26 0.27 0.28 0.29 0.36 0.38 0.39 0.41 0.44 0.43 0.37 0.37 0.38 0.43 0.40 0.35 0.32 0.28 0.25 0.23 0.20 0.22 0.22 0.21 0.22 0.23 0.22 0.22 0.18 0.21 0.21 0.22 0.22 0.23 0.23 0.23 0.23 0.22 0.22 0.22 0.22 0.21 0.21 0.20 0.19
0.72 0.70 0.63 0.72 0.66 0.68 0.71 0.69 0.67 0.61 0.52 0.44 0.31 0.26 0.23 0.15 0.13 0.26 0.18 0.20 0.21 0.29 0.31 0.28 0.29 0.29 0.27 0.21 0.23 0.27 0.21 0.28 0.28 0.27 0.28 0.26 0.26 0.22 0.25 0.29 0.31 0.29 0.30 0.28 0.24 0.25 0.21 0.23 0.32 0.37 0.34 0.44 0.44 0.42 0.40 0.38 0.37 0.36 0.36 0.32 0.30 0.28 0.26 0.21 0.22 0.20 0.21 0.22 0.23 0.24 0.20 0.18 0.19 0.20 0.23 0.23 0.23 0.22 0.22 0.22 0.22 0.22 0.22 0.22 0.21 0.21 0.20 0.18
0.70 0.66 0.63 0.67 0.70 0.72 0.70 0.70 0.68 0.65 0.58 0.41 0.27 0.22 0.16 0.14 0.16 0.15 0.16 0.18 0.26 0.28 0.24 0.32 0.24 0.23 0.21 0.24 0.24 0.26 0.26 0.23 0.31 0.28 0.25 0.24 0.21 0.22 0.21 0.23 0.30 0.31 0.31 0.24 0.28 0.26 0.25 0.27 0.36 0.41 0.41 0.44 0.40 0.44 0.44 0.41 0.39 0.38 0.38 0.37 0.32 0.30 0.31 0.25 0.26 0.23 0.22 0.21 0.19 0.20 0.19 0.22 0.21 0.23 0.23 0.24 0.23 0.22 0.22 0.22 0.22 0.22 0.22 0.22 0.21 0.20 0.19 0.17
0.65 0.61 0.64 0.56 0.60 0.71 0.76 0.74 0.71 0.67 0.52 0.37 0.23 0.19 0.17 0.17 0.15 0.21 0.18 0.28 0.28 0.23 0.24 0.25 0.23 0.18 0.17 0.18 0.26 0.25 0.33 0.24 0.26 0.26 0.24 0.25 0.24 0.22 0.25 0.27 0.27 0.31 0.28 0.25 0.29 0.27 0.29 0.26 0.38 0.40 0.42 0.40 0.40 0.42 0.42 0.43 0.34 0.38 0.38 0.33 0.34 0.35 0.32 0.28 0.26 0.24 0.23 0.21 0.18 0.22 0.20 0.22 0.23 0.22 0.23 0.23 0.23 0.22 0.22 0.22 0.22 0.22 0.22 0.22 0.21 0.20 0.19 0.17
0.57 0.60 0.47 0.52 0.55 0.69 0.73 0.75 0.75 0.62 0.50 0.36 0.24 0.18 0.20 0.21 0.21 0.19 0.26 0.22 0.25 0.25 0.19 0.13 0.15 0.16 0.16 0.18 0.21 0.25 0.27 0.28 0.25 0.24 0.20 0.25 0.20 0.24 0.25 0.28 0.32 0.31 0.33 0.32 0.29 0.34 0.28 0.28 0.37 0.38 0.36 0.40 0.43 0.42 0.42 0.43 0.43 0.38 0.33 0.34 0.35 0.34 0.32 0.27 0.22 0.23 0.22 0.19 0.19 0.21 0.19 0.20 0.19 0.18 0.24 0.23 0.23 0.22 0.22 0.22 0.22 0.22 0.22 0.21 0.21 0.20 0.18 0.17
0.56 0.53 0.51 0.51 0.58 0.69 0.74 0.77 0.70 0.61 0.45 0.34 0.23 0.21 0.26 0.21 0.24 0.23 0.29 0.28 0.26 0.24 0.18 0.16 0.16 0.21 0.16 0.16 0.16 0.21 0.27 0.22 0.22 0.24 0.19 0.23 0.18 0.28 0.26 0.26 0.32 0.32 0.34 0.37 0.32 0.32 0.37 0.29 0.34 0.39 0.40 0.40 0.43 0.42 0.40 0.42 0.43 0.39 0.36 0.37 0.32 0.28 0.27 0.27 0.24 0.20 0.20 0.19 0.19 0.19 0.21 0.20 0.20 0.20 0.23 0.22 0.22 0.22 0.22 0.22 0.22 0.21 0.21 0.21 0.21 0.20 0.18 0.18
0.58 0.48 0.36 0.49 0.66 0.68 0.73 0.75 0.69 0.51 0.39 0.29 0.24 0.22 0.25 0.24 0.24 0.25 0.30 0.28 0.27 0.23 0.18 0.18 0.15 0.19 0.19 0.17 0.20 0.25 0.25 0.20 0.23 0.22 0.20 0.22 0.19 0.27 0.26 0.28 0.28 0.33 0.36 0.37 0.33 0.36 0.39 0.32 0.32 0.38 0.40 0.41 0.42 0.40 0.35 0.38 0.41 0.40 0.39 0.35 0.35 0.31 0.28 0.26 0.24 0.24 0.22 0.20 0.19 0.17 0.20 0.18 0.22 0.22 0.23 0.23 0.23 0.22 0.22 0.21 0.21 0.21 0.22 0.22 0.21 0.19 0.18 0.17
0.47 0.38 0.32 0.57 0.65 0.66 0.70 0.68 0.55 0.48 0.35 0.24 0.23 0.23 0.28 0.24 0.27 0.28 0.30 0.26 0.23 0.21 0.20 0.18 0.21 0.17 0.20 0.21 0.24 0.22 0.27 0.25 0.24 0.24 0.23 0.23 0.21 0.29 0.26 0.32 0.29 0.32 0.36 0.38 0.35 0.39 0.36 0.38 0.29 0.36 0.42 0.41 0.36 0.40 0.38 0.39 0.36 0.35 0.34 0.32 0.33 0.31 0.31 0.29 0.26 0.24 0.22 0.20 0.18 0.19 0.17 0.19 0.22 0.24 0.24 0.23 0.23 0.22 0.22 0.22 0.21 0.21 0.22 0.22 0.21 0.19 0.18 0.17
0.55 0.38 0.38 0.63 0.64 0.69 0.67 0.55 0.41 0.33 0.29 0.30 0.31 0.26 0.28 0.27 0.29 0.29 0.31 0.31 0.28 0.30 0.22 0.21 0.21 0.20 0.21 0.22 0.21 0.26 0.25 0.27 0.26 0.23 0.24 0.24 0.24 0.21 0.30 0.30 0.33 0.32 0.36 0.35 0.35 0.38 0.37 0.36 0.33 0.36 0.37 0.37 0.40 0.44 0.42 0.40 0.37 0.35 0.33 0.32 0.32 0.30 0.27 0.24 0.23 0.26 0.24 0.20 0.19 0.19 0.17 0.20 0.23 0.24 0.24 0.24 0.24 0.23 0.23 0.22 0.21 0.21 0.22 0.22 0.21 0.19 0.18 0.17
0.43 0.27 0.34 0.61 0.67 0.67 0.51 0.32 0.34 0.37 0.32 0.26 0.23 0.27 0.27 0.34 0.31 0.31 0.32 0.32 0.30 0.26 0.31 0.26 0.24 0.23 0.21 0.22 0.23 0.26 0.26 0.25 0.25 0.26 0.25 0.22 0.28 0.27 0.30 0.35 0.35 0.36 0.33 0.30 0.33 0.40 0.41 0.40 0.37 0.35 0.38 0.40 0.42 0.43 0.43 0.41 0.38 0.37 0.35 0.32 0.32 0.30 0.29 0.25 0.21 0.23 0.24 0.22 0.22 0.20 0.18 0.18 0.24 0.25 0.25 0.24 0.24 0.23 0.23 0.23 0.22 0.23 0.23 0.22 0.20 0.19 0.18 0.17
0.43 0.35 0.57 0.62 0.69 0.61 0.44 0.31 0.35 0.33 0.29 0.29 0.35 0.35 0.36 0.33 0.30 0.32 0.30 0.32 0.28 0.31 0.29 0.27 0.24 0.23 0.23 0.23 0.24 0.24 0.27 0.24 0.23 0.23 0.25 0.27 0.28 0.32 0.36 0.36 0.37 0.35 0.35 0.33 0.36 0.39 0.43 0.38 0.36 0.36 0.41 0.43 0.43 0.42 0.43 0.40 0.38 0.35 0.34 0.33 0.31 0.28 0.28 0.27 0.26 0.25 0.22 0.22 0.21 0.21 0.17 0.19 0.23 0.25 0.25 0.25 0.25 0.25 0.25 0.24 0.23 0.23 0.23 0.21 0.19 0.18 0.18 0.17
0.44 0.44 0.48 0.66 0.71 0.63 0.39 0.23 0.24 0.28 0.29 0.33 0.34 0.31 0.38 0.33 0.32 0.31 0.31 0.33 0.30 0.30 0.26 0.26 0.28 0.29 0.24 0.28 0.27 0.24 0.28 0.22 0.25 0.26 0.26 0.30 0.29 0.34 0.36 0.37 0.37 0.33 0.33 0.33 0.34 0.40 0.39 0.39 0.39 0.36 0.36 0.37 0.38 0.39 0.38 0.38 0.36 0.33 0.32 0.33 0.31 0.29 0.28 0.28 0.28 0.26 0.22 0.22 0.23 0.19 0.16 0.20 0.24 0.26 0.26 0.25 0.25 0.25 0.25 0.24 0.23 0.23 0.22 0.21 0.19 0.18 0.17 0.17
0.43 0.50 0.49 0.56 0.66 0.60 0.34 0.32 0.28 0.25 0.28 0.29 0.30 0.28 0.29 0.34 0.38 0.36 0.34 0.33 0.37 0.34 0.31 0.28 0.28 0.30 0.30 0.32 0.29 0.29 0.30 0.26 0.23 0.29 0.29 0.31 0.31 0.34 0.35 0.36 0.36 0.34 0.36 0.41 0.43 0.47 0.42 0.42 0.42 0.35 0.32 0.29 0.29 0.30 0.31 0.34 0.35 0.35 0.34 0.33 0.31 0.30 0.28 0.28 0.24 0.24 0.20 0.24 0.23 0.19 0.19 0.22 0.24 0.25 0.25 0.25 0.25 0.25 0.25 0.23 0.23 0.23 0.22 0.20 0.18 0.18 0.17 0.16
0.37 0.24 0.40 0.45 0.56 0.53 0.47 0.49 0.42 0.34 0.31 0.31 0.29 0.28 0.31 0.29 0.36 0.41 0.40 0.37 0.39 0.38 0.36 0.33 0.35 0.35 0.32 0.32 0.29 0.28 0.27 0.32 0.29 0.28 0.29 0.29 0.30 0.32 0.35 0.36 0.36 0.36 0.38 0.42 0.44 0.44 0.42 0.46 0.46 0.44 0.40 0.37 0.39 0.38 0.38 0.38 0.35 0.32 0.33 0.31 0.31 0.30 0.30 0.29 0.26 0.22 0.22 0.24 0.21 0.21 0.22 0.22 0.21 0.23 0.24 0.25 0.25 0.25 0.23 0.23 0.22 0.22 0.21 0.19 0.18 0.17 0.16 0.15
0.43 0.26 0.29 0.28 0.44 0.46 0.41 0.46 0.40 0.38 0.30 0.32 0.26 0.30 0.29 0.30 0.33 0.39 0.46 0.36 0.40 0.37 0.35 0.34 0.33 0.31 0.30 0.30 0.27 0.27 0.28 0.30 0.35 0.34 0.31 0.30 0.31 0.33 0.37 0.36 0.37 0.38 0.40 0.41 0.44 0.45 0.44 0.44 0.45 0.45 0.44 0.43 0.44 0.41 0.39 0.38 0.35 0.34 0.32 0.30 0.30 0.30 0.31 0.28 0.25 0.25 0.27 0.22 0.18 0.22 0.23 0.21 0.21 0.23 0.24 0.25 0.25 0.24 0.22 0.22 0.22 0.21 0.19 0.18 0.18 0.17 0.16 0.15
0.30 0.32 0.35 0.36 0.23 0.24 0.31 0.35 0.41 0.37 0.38 0.38 0.30 0.31 0.27 0.29 0.34 0.32 0.42 0.44 0.42 0.42 0.33 0.34 0.35 0.35 0.33 0.29 0.28 0.26 0.27 0.30 0.33 0.30 0.32 0.35 0.33 0.34 0.35 0.37 0.36 0.40 0.40 0.41 0.47 0.47 0.46 0.43 0.45 0.45 0.43 0.44 0.44 0.42 0.40 0.36 0.35 0.34 0.31 0.29 0.29 0.31 0.30 0.28 0.27 0.27 0.25 0.22 0.21 0.24 0.23 0.22 0.23 0.24 0.25 0.25 0.24 0.23 0.22 0.22 0.22 0.21 0.19 0.18 0.17 0.16 0.15 0.15
0.41 0.42 0.39 0.47 0.28 0.28 0.27 0.28 0.33 0.35 0.32 0.34 0.31 0.31 0.28 0.29 0.29 0.34 0.36 0.38 0.39 0.36 0.38 0.28 0.28 0.32 0.33 0.33 0.33 0.28 0.29 0.28 0.28 0.31 0.31 0.33 0.34 0.34 0.33 0.36 0.39 0.43 0.42 0.43 0.47 0.52 0.49 0.43 0.44 0.44 0.42 0.41 0.42 0.42 0.41 0.38 0.36 0.34 0.32 0.31 0.32 0.31 0.30 0.29 0.28 0.28 0.26 0.24 0.24 0.23 0.23 0.22 0.24 0.25 0.26 0.25 0.25 0.23 0.23 0.23 0.21 0.19 0.18 0.17 0.16 0.15 0.15 0.15
0.41 0.37 0.34 0.48 0.40 0.34 0.37 0.36 0.35 0.33 0.29 0.31 0.28 0.28 0.31 0.31 0.27 0.32 0.39 0.35 0.29 0.32 0.41 0.34 0.28 0.30 0.33 0.34 0.35 0.32 0.31 0.33 0.31 0.29 0.35 0.37 0.38 0.38 0.36 0.37 0.39 0.43 0.46 0.45 0.50 0.53 0.49 0.41 0.44 0.43 0.40 0.38 0.40 0.40 0.40 0.38 0.36 0.32 0.32 0.32 0.32 0.31 0.30 0.29 0.28 0.27 0.27 0.25 0.25 0.25 0.23 0.23 0.26 0.27 0.26 0.26 0.24 0.23 0.22 0.21 0.20 0.18 0.18 0.17 0.16 0.15 0.15 0.16
0.63 0.60 0.51 0.40 0.36 0.37 0.38 0.40 0.35 0.34 0.31 0.33 0.31 0.30 0.33 0.31 0.27 0.32 0.33 0.38 0.31 0.29 0.34 0.30 0.29 0.32 0.37 0.37 0.37 0.36 0.38 0.39 0.41 0.40 0.43 0.44 0.39 0.44 0.42 0.42 0.46 0.43 0.47 0.50 0.52 0.51 0.49 0.43 0.46 0.42 0.36 0.35 0.38 0.38 0.37 0.37 0.35 0.32 0.30 0.32 0.32 0.31 0.29 0.29 0.27 0.28 0.26 0.25 0.26 0.25 0.23 0.23 0.26 0.27 0.27 0.25 0.22 0.21 0.20 0.20 0.19 0.18 0.17 0.17 0.16 0.16 0.16 0.16
0.81 0.83 0.73 0.56 0.38 0.39 0.37 0.41 0.43 0.40 0.31 0.31 0.32 0.32 0.30 0.29 0.32 0.36 0.32 0.38 0.38 0.39 0.34 0.34 0.35 0.37 0.36 0.38 0.37 0.39 0.45 0.48 0.50 0.54 0.56 0.56 0.56 0.54 0.54 0.54 0.54 0.51 0.51 0.52 0.54 0.48 0.47 0.43 0.40 0.38 0.33 0.33 0.36 0.37 0.35 0.34 0.31 0.26 0.27 0.30 0.32 0.31 0.31 0.31 0.30 0.29 0.28 0.28 0.25 0.23 0.23 0.26 0.26 0.26 0.24 0.22 0.21 0.20 0.19 0.19 0.18 0.17 0.17 0.17 0.17 0.17 0.17 0.16
Wind_Speed
8 8 9 10 10 11 12 12 13 14 15 15 16 17 18 19 20 21 21 22 23 25 25 25 24 22 20 18 18 18 19 18 18 19 18 17 17 16 16 15 14 14 13 11 9 9 8 8 8 9 9 9 8 8 9 10 10 10 9 9 11 10 8 11 12 13 14 14 15 15 15 15 15 15 16 16 14 12 12 14 15 15 17 17 18 19 21 22
8 9 10 10 11 11 12 13 13 14 15 16 17 17 18 19 20 21 21 22 23 25 25 24 23 22 20 18 18 18 17 17 17 19 18 18 18 17 16 16 15 14 13 12 11 11 10 9 10 11 11 10 9 9 9 10 10 11 10 11 12 10 11 13 14 14 15 15 16 16 16 16 15 15 17 16 13 13 14 16 17 16 18 18 19 20 21 22
9 10 10 11 11 12 12 13 13 14 15 16 17 18 18 19 20 21 21 22 23 25 25 24 22 21 19 18 17 17 17 16 17 18 18 19 19 18 17 17 16 15 14 13 13 12 11 11 11 11 12 11 9 9 10 10 11 11 11 12 12 12 12 14 15 16 16 16 16 17 18 17 16 16 17 15 13 14 16 17 17 17 19 19 20 21 22 23
10 11 11 12 12 12 13 13 14 14 15 16 17 18 19 19 20 21 21 22 23 24 24 23 21 21 19 18 16 16 16 15 17 18 18 19 20 19 18 18 18 16 15 15 14 13 12 12 12 12 12 12 10 10 10 10 12 12 11 12 12 13 14 13 15 16 16 16 16 18 18 18 18 17 17 16 14 16 17 17 17 18 19 20 21 22 22 23
11 11 12 12 13 13 13 14 14 15 15 16 17 18 19 20 20 21 21 22 23 24 24 22 20 20 19 18 16 15 16 15 16 18 19 20 20 19 19 19 19 17 16 16 15 15 14 14 14 12 12 12 11 10 10 10 13 13 12 12 12 14 15 14 15 16 15 15 17 18 18 19 19 18 16 16 15 17 17 17 17 19 20 21 21 22 23 23
11 12 12 13 13 14 14 15 15 15 16 16 17 18 19 20 20 21 21 22 23 24 23 21 19 19 18 17 16 16 16 16 17 18 20 20 19 20 20 19 19 18 17 17 16 16 15 15 15 13 13 13 12 11 11 11 13 13 12 12 12 14 16 15 16 16 15 16 18 18 18 19 19 17 16 15 15 16 16 17 18 19 21 21 22 23 24 24
12 13 13 13 14 14 15 15 15 16 16 16 17 18 19 20 20 21 22 22 22 23 22 20 18 18 17 16 16 16 16 16 17 19 20 20 19 20 20 20 19 18 18 18 18 17 16 16 16 15 14 14 13 12 12 13 13 13 13 12 13 15 17 16 17 17 15 16 18 19 20 20 18 17 17 15 15 16 17 18 19 20 21 22 23 24 25 26
13 13 14 14 14 15 16 16 16 16 17 17 18 18 19 20 21 21 22 22 22 22 22 20 18 17 16 15 16 15 15 16 17 18 19 19 19 20 20 20 20 19 19 19 19 18 17 16 16 15 15 14 13 14 14 15 14 14 15 14 14 15 16 17 17 17 16 16 18 21 21 19 18 17 17 16 15 17 18 19 19 20 21 23 24 25 25 26
14 14 15 15 15 16 16 16 17 17 17 18 18 19 19 20 21 21 22 22 21 22 21 19 17 16 15 15 16 15 15 17 17 18 19 19 19 19 21 21 21 20 19 19 19 19 18 17 16 15 15 15 14 15 15 15 14 15 16 16 17 17 16 17 17 17 16 16 18 21 21 18 15 17 18 16 16 17 18 19 20 21 22 23 24 25 26 25
15 15 16 16 16 16 17 17 17 18 18 18 19 19 20 20 21 22 22 21 21 22 20 19 17 16 15 15 16 15 15 16 17 18 18 19 19 19 20 21 21 21 20 20 20 20 19 18 17 16 16 15 14 15 15 14 14 16 18 18 19 19 17 16 17 16 15 16 18 20 21 18 16 18 20 17 16 17 18 19 21 22 23 24 24 25 25 25
16 16 16 17 17 17 17 18 18 18 19 19 20 20 20 21 22 22 22 21 21 22 20 18 16 15 15 15 16 15 15 16 17 18 18 19 19 19 20 21 22 21 21 21 20 20 19 18 18 17 15 15 16 15 14 14 16 16 18 19 19 19 17 16 17 16 15 17 19 20 21 20 19 20 20 17 17 18 18 20 21 22 23 24 25 25 25 25
16 17 17 17 18 18 18 18 19 19 19 20 20 21 21 22 22 22 22 21 21 22 20 18 16 15 15 15 15 15 14 15 17 18 19 19 19 20 20 21 22 22 21 21 21 20 19 19 18 17 16 17 17 16 14 15 17 18 18 18 17 16 16 16 16 16 16 17 19 21 21 20 20 20 18 16 18 18 19 21 22 23 24 25 25 25 24 25
17 17 18 18 18 18 19 19 20 20 20 21 21 22 22 22 23 23 22 21 21 22 20 18 16 15 15 14 14 14 14 16 17 18 19 19 19 20 20 21 22 22 22 21 21 21 20 19 18 17 17 17 17 16 16 17 17 18 17 17 16 16 17 16 16 16 17 18 19 20 20 20 20 18 17 17 18 19 21 22 23 24 25 26 26 25 25 25
18 18 18 19 19 19 19 20 20 20 21 21 22 23 23 23 23 23 22 21 22 22 20 18 16 15 15 14 14 14 15 16 17 18 19 20 20 20 20 21 22 22 22 22 21 21 20 20 19 18 17 17 17 17 17 17 16 17 16 16 16 16 17 16 16 17 18 19 18 20 21 20 19 17 18 19 20 21 22 23 24 25 26 26 25 25 25 26
19 19 19 19 20 20 20 21 21 21 22 22 23 24 24 24 23 23 22 21 22 21 19 17 16 16 16 15 15 15 16 17 17 19 19 20 21 21 21 22 22 22 22 22 21 21 20 20 19 18 17 16 17 18 17 16 16 16 15 16 15 16 17 17 18 18 18 20 19 20 21 19 19 20 20 21 22 22 22 24 25 26 27 27 26 25 26 27
20 20 20 20 21 21 21 22 22 22 23 23 24 25 25 23 23 23 21 21 22 21 18 17 16 17 17 15 16 16 16 17 18 19 19 20 21 21 22 23 22 22 22 22 22 21 21 20 19 18 18 17 16 17 18 17 17 16 15 15 16 17 18 18 20 19 19 21 21 21 21 21 22 23 22 22 22 22 23 25 26 27 27 27 26 26 28 29
21 21 21 21 21 22 22 22 23 24 24 24 25 25 25 23 22 22 20 21 22 20 18 17 18 18 17 17 16 16 17 18 19 19 20 21 21 22 23 22 22 22 23 22 22 21 21 20 19 19 18 17 16 17 19 18 17 16 16 18 19 20 20 20 21 21 20 21 22 22 24 24 23 23 23 23 23 23 24 25 26 27 27 27 26 27 29 31
22 22 22 22 22 23 23 23 24 24 25 25 26 26 24 22 22 21 19 21 22 20 18 18 19 19 18 17 17 18 18 19 19 19 20 21 22 23 23 22 23 24 24 22 21 21 21 20 19 19 19 17 16 18 19 19 18 18 20 21 22 22 22 23 23 22 21 21 23 25 26 25 22 23 25 24 24 25 25 27 27 27 27 27 27 28 30 31
23 23 23 23 23 24 24 24 25 25 26 26 26 25 22 22 22 19 19 23 22 19 19 20 20 20 19 19 18 19 19 19 19 19 21 22 23 23 23 22 23 24 24 22 22 23 22 22 20 19 19 18 18 20 20 20 20 21 22 22 23 23 24 25 24 23 23 23 25 26 27 26 23 24 26 26 26 26 26 27 28 28 28 28 28 29 31 32
24 24 24 24 24 25 25 25 26 26 27 26 25 24 22 22 22 20 22 24 21 20 21 22 22 21 21 20 19 20 19 19 19 19 21 23 24 23 22 22 23 23 23 23 24 23 22 22 21 19 19 19 21 22 21 22 22 22 22 23 23 24 24 24 23 22 22 24 26 27 28 28 27 26 26 26 27 27 27 27 27 27 28 28 28 29 31 32
25 25 25 25 25 25 26 26 27 27 27 25 24 23 22 22 22 22 24 23 20 21 23 23 22 22 22 20 20 20 19 18 19 20 22 23 23 23 22 23 23 23 24 25 25 22 21 22 21 19 20 21 22 22 22 22 22 22 23 23 24 23 24 24 22 22 22 24 26 28 29 30 28 26 25 26 26 27 26 26 27 27 27 28 29 30 32 32
27 26 26 26 26 26 27 27 27 27 26 25 24 22 22 23 23 24 25 24 23 23 23 22 22 22 21 20 20 19 19 19 19 20 22 24 23 22 23 24 23 24 25 26 24 22 23 22 20 20 21 22 23 22 22 22 22 23 23 23 23 23 23 23 22 23 24 26 28 30 30 30 29 27 25 25 25 26 26 26 26 27 28 29 30 31 32 34
28 27 27 27 27 27 27 28 28 27 26 25 24 23 23 24 25 25 25 25 25 23 22 22 21 21 20 19 19 19 19 20 20 21 23 24 23 22 23 24 24 25 25 24 23 23 24 23 21 22 23 24 24 23 23 23 23 23 23 23 24 23 23 24 24 26 27 28 30 31 30 30 29 26 25 25 25 25 26 26 27 28 29 30 31 31 33 35
29 28 28 28 28 28 28 29 27 26 25 25 24 24 24 25 26 26 26 26 26 23 22 22 21 21 20 19 19 19 20 21 21 22 23 24 23 22 23 24 25 25 24 24 24 25 25 24 23 23 23 24 26 26 25 25 24 24 24 24 24 23 23 25 27 29 30 29 29 29 30 30 27 25 26 25 25 26 26 27 28 28 29 30 31 32 34 35
30 29 29 29 29 29 29 29 27 26 26 25 25 25 25 25 26 26 26 27 26 24 22 22 21 20 19 18 19 19 21 22 22 23 23 23 23 23 24 24 25 25 25 25 25 26 25 25 24 24 24 25 26 27 26 24 25 26 24 23 23 23 25 26 28 29 29 28 26 25 29 30 25 24 27 26 26 27 27 28 28 28 29 30 32 33 34 36
31 30 30 30 30 30 29 28 26 27 27 26 26 26 26 26 26 27 27 26 26 24 22 21 20 19 19 19 19 20 22 22 22 23 23 23 24 24 25 25 24 25 25 25 26 26 25 24 24 25 26 27 28 28 27 25 25 26 25 24 24 25 26 27 28 27 26 27 26 25 28 30 28 26 26 27 28 28 28 29 28 29 30 31 33 34 35 37
32 31 31 30 30 30 29 27 27 28 27 26 27 27 26 26 26 27 26 25 25 22 20 21 20 20 20 19 20 21 22 22 23 24 23 24 25 25 25 25 25 25 25 26 27 26 25 25 25 26 26 28 28 28 27 26 26 26 26 25 26 26 27 28 28 27 27 29 30 27 27 31 31 29 27 26 28 29 29 29 29 29 30 32 33 35 36 38
33 32 31 31 31 30 29 29 29 28 27 28 28 27 27 26 26 26 24 24 24 22 21 22 21 22 21 21 22 23 23 23 24 24 23 25 26 25 25 25 25 26 25 26 28 27 26 25 25 26 27 28 28 27 26 26 26 27 27 27 27 27 28 28 28 28 29 30 29 27 25 28 31 28 26 26 27 29 29 29 30 30 31 33 34 35 37 38
33 33 32 32 32 31 30 30 29 28 28 29 28 27 27 27 27 25 22 23 23 23 23 22 22 23 22 23 24 24 25 24 24 25 25 26 27 25 25 25 26 28 27 26 28 29 27 26 26 26 27 28 28 26 26 26 27 27 28 29 28 28 29 28 28 29 29 28 29 29 26 27 30 28 26 27 28 29 29 29 30 30 31 34 35 36 37 38
34 33 33 33 32 31 31 30 29 29 29 29 28 28 27 27 26 23 22 24 24 24 24 24 24 23 23 24 24 24 25 25 25 26 27 27 27 25 25 26 27 28 28 27 29 29 26 26 27 27 28 28 27 27 26 26 27 28 29 29 29 29 28 27 27 27 27 27 28 29 26 27 29 29 27 28 29 29 28 29 30 31 33 34 35 37 38 40
35 34 33 33 32 32 31 31 30 30 30 29 29 28 28 28 25 23 23 25 26 26 25 24 24 24 23 25 25 24 25 26 26 26 27 27 26 25 26 27 27 28 29 29 29 28 27 27 28 28 29 27 27 28 27 26 28 28 28 29 29 29 27 26 26 25 25 27 27 28 28 28 29 29 28 29 29 28 28 29 30 32 33 35 36 37 39 40
36 35 34 34 33 33 32 31 31 31 30 30 29 29 29 27 26 26 25 25 25 25 25 24 25 25 25 26 26 26 27 28 27 27 27 27 26 26 26 27 27 28 29 28 28 29 29 29 28 28 29 27 27 28 28 28 28 27 27 27 27 27 27 26 25 24 25 28 27 26 28 30 32 33 31 30 30 29 29 29 30 32 34 35 37 38 39 40
37 36 35 35 34 34 33 32 32 31 31 31 30 30 28 27 28 27 27 26 25 26 26 26 26 26 26 27 28 27 28 29 28 27 27 26 27 28 28 28 26 27 29 29 30 31 31 30 28 28 29 27 27 28 28 29 28 27 26 25 24 25 26 27 26 26 27 28 27 27 30 32 34 35 31 29 30 30 29 29 30 32 34 36 37 37 39 41
37 37 36 35 35 35 34 33 33 32 32 31 31 30 29 29 30 29 29 28 27 28 27 27 28 28 28 28 29 28 29 30 28 27 27 26 28 30 29 28 26 26 28 29 30 29 29 31 29 28 29 28 28 29 28 28 28 28 26 25 25 24 25 27 27 27 29 31 31 29 30 31 33 34 31 28 29 29 29 29 31 33 34 35 36 37 39 42
38 38 38 37 36 36 35 34 34 33 33 32 32 32 31 31 31 30 30 29 28 28 28 28 28 29 31 31 30 28 28 29 28 27 28 28 29 30 29 28 26 25 26 27 28 28 29 31 31 30 30 30 30 30 29 28 28 29 27 26 27 26 26 28 29 28 30 33 33 29 30 32 32 34 32 28 28 29 29 31 32 34 35 35 37 38 41 42
39 39 38 38 37 36 35 35 34 34 34 33 33 34 34 33 31 30 30 29 28 27 27 29 29 30 32 30 29 28 27 28 28 28 30 30 31 31 29 28 26 25 26 27 28 29 29 32 32 32 32 31 32 31 30 29 28 28 27 27 28 27 27 28 30 30 28 32 33 30 32 34 32 32 32 29 29 30 30 32 33 34 35 36 38 40 41 42
39 39 39 39 38 36 36 36 35 35 35 35 36 37 36 35 34 32 31 30 30 29 28 30 30 29 30 29 29 29 28 29 29 29 30 31 31 31 29 28 28 27 27 28 29 29 30 33 34 33 33 33 33 33 32 31 29 28 28 28 28 27 27 27 28 28 27 31 33 30 32 34 32 31 31 30 30 30 31 33 34 35 36 37 39 40 42 43
40 40 40 40 38 37 37 37 36 36 36 36 39 40 37 36 35 33 31 30 31 30 30 32 31 29 30 31 31 29 29 30 29 30 31 32 32 31 28 29 29 29 29 28 30 31 31 33 35 34 33 33 33 33 33 32 30 29 29 29 27 27 27 26 26 27 28 31 33 33 33 34 33 31 30 30 30 30 32 33 34 36 37 38 40 41 42 43
40 40 41 40 39 38 38 38 38 38 38 38 40 39 38 37 37 35 32 31 31 31 31 32 31 31 32 32 31 30 30 31 31 31 32 32 32 31 29 30 31 31 30 29 30 31 31 32 34 34 34 34 33 33 32 32 31 30 30 30 29 28 28 27 27 27 28 30 33 36 36 34 33 31 29 29 30 30 33 35 36 38 38 39 41 42 43 43
40 40 41 40 38 38 38 39 39 39 40 41 41 40 38 38 38 37 36 34 33 32 32 32 32 33 33 33 33 32 32 33 33 33 33 33 34 34 32 31 30 30 31 31 31 32 31 32 34 35 35 34 33 34 33 32 31 29 29 29 29 29 28 29 30 29 28 30 31 34 38 35 32 31 29 28 30 31 33 36 38 38 38 39 40 41 43 43
41 41 41 40 39 38 38 39 40 41 41 42 42 41 40 39 38 38 37 36 35 34 34 34 34 34 34 34 34 33 34 35 35 34 35 35 34 34 33 31 30 30 31 32 32 32 32 33 35 36 35 35 36 36 34 32 31 30 31 31 30 30 28 28 31 30 30 32 31 33 38 37 33 31 30 30 32 33 34 37 37 37 37 39 40 41 43 43
42 42 41 40 40 39 39 40 41 41 42 43 42 41 41 40 39 38 37 37 37 36 36 36 36 36 36 36 36 35 35 36 36 35 36 36 35 35 35 32 31 31 31 33 34 34 33 34 36 37 37 37 37 35 33 32 31 32 32 32 31 30 29 29 31 31 31 33 33 33 38 39 35 32 31 31 32 33 35 37 36 36 37 39 40 42 42 43
43 43 41 41 42 41 41 42 42 43 44 44 43 43 42 41 40 39 38 38 37 36 37 37 37 37 38 37 36 36 36 37 38 37 37 37 36 36 35 33 31 32 33 34 33 33 33 33 35 37 37 36 36 35 33 32 32 33 34 33 31 32 31 31 33 33 32 34 33 32 36 38 36 33 32 31 32 33 36 36 35 36 37 39 41 42 42 43
44 43 43 43 44 43 43 44 43 44 44 44 44 44 44 43 42 41 39 39 38 37 38 39 38 38 38 36 37 37 35 36 38 37 37 37 36 36 36 34 33 34 34 34 34 33 33 33 33 35 36 35 34 33 33 33 33 34 34 33 33 33 32 33 34 33 34 37 34 33 36 37 35 34 32 32 34 35 35 35 35 36 38 39 41 42 42 43
43 44 44 45 46 46 46 45 44 45 45 44 45 46 45 44 44 43 42 41 41 40 39 40 39 39 38 36 37 38 36 37 38 37 37 37 37 37 37 36 35 35 35 35 35 35 35 34 33 33 34 35 33 32 33 33 33 34 34 33 33 34 33 34 34 33 35 38 36 35 38 39 36 34 34 34 36 38 36 35 35 36 38 39 40 41 42 43
44 45 45 44 46 48 48 47 45 45 45 44 45 46 46 46 45 45 45 44 43 42 42 41 39 38 38 37 38 39 39 38 39 39 38 38 38 37 37 36 36 36 35 35 36 36 36 37 37 36 37 38 37 35 35 34 33 34 34 33 33 34 34 34 34 34 36 37 38 39 39 41 41 37 37 38 38 38 37 35 36 37 38 39 39 40 42 43
45 46 46 44 44 47 48 48 47 47 46 45 45 45 46 46 45 43 44 44 44 43 43 42 40 38 38 37 38 40 41 40 40 41 40 38 37 38 38 37 37 37 37 36 37 37 37 39 39 39 41 42 40 38 36 35 35 36 35 34 34 34 34 34 36 38 36 35 40 41 38 41 42 38 37 38 37 37 36 35 36 37 38 38 39 40 42 44
48 47 47 46 45 45 47 48 48 47 47 47 46 46 48 48 45 43 43 43 44 43 41 42 42 41 39 39 39 41 42 40 40 42 41 38 37 38 39 39 39 40 38 38 39 38 38 41 40 39 42 43 41 40 38 37 38 38 37 36 36 36 36 37 40 40 37 38 43 42 40 42 41 37 37 38 37 36 35 35 36 36 37 38 39 41 43 43
49 48 47 48 48 47 48 48 48 48 49 48 47 49 49 48 48 46 42 41 43 43 41 42 43 42 41 41 41 42 43 41 40 42 40 38 38 38 39 41 40 40 39 39 40 39 38 40 39 38 42 43 41 40 39 39 40 41 40 39 38 38 38 40 41 40 40 43 45 44 44 45 41 38 39 38 36 35 34 34 35 36 36 38 39 41 42 43
50 49 47 47 49 49 48 48 47 48 49 49 49 50 49 49 50 48 43 42 44 43 42 45 47 43 42 43 43 46 46 42 43 44 40 38 40 39 40 41 40 39 40 40 40 39 38 38 37 36 39 41 39 38 39 39 41 43 43 41 39 40 41 42 41 40 39 43 45 44 45 45 40 36 38 36 34 33 33 34 35 35 36 37 39 41 42 42
52 51 49 47 48 49 48 47 47 47 48 50 51 50 49 51 52 48 46 48 48 45 44 47 49 45 43 45 47 48 48 44 45 45 41 41 43 42 42 42 39 39 41 40 39 39 38 37 36 34 37 38 36 36 37 38 40 44 45 43 40 41 42 41 40 39 39 42 43 42 42 41 36 34 34 33 32 31 32 33 34 35 36 37 39 41 41 42
53 52 51 49 49 50 49 47 46 48 51 51 50 50 51 52 50 48 48 49 50 50 49 48 47 45 45 48 49 49 48 45 44 44 42 43 44 43 43 42 40 39 40 39 39 38 37 36 35 34 34 36 34 33 34 35 37 42 43 40 38 39 40 40 39 39 39 40 41 40 38 37 34 32 33 32 31 31 32 32 33 35 36 37 38 39 40 43
Wind_Direction
326 331 335 340 342 343 344 345 346 347 348 348 349 351 353 353 354 355 356 358 358 359 359 360 -0 359 360 2 6 8 10 13 14 15 15 11 6 2 359 357 355 352 350 348 342 333 320 309 306 310 307 299 302 306 305 310 310 308 306 301 302 301 300 304 309 316 313 313 316 318 323 318 317 321 318 315 312 317 329 330 332 336 336 334 331 331 331 331
319 323 328 333 336 337 339 340 342 343 344 345 346 347 349 350 351 353 354 355 356 357 358 359 359 358 358 360 3 6 8 11 14 16 14 8 4 1 358 356 354 352 350 349 345 339 331 322 316 313 308 301 301 305 303 306 305 303 306 303 301 300 298 305 312 313 313 314 313 317 319 316 317 318 314 315 316 319 322 322 324 329 331 332 330 329 329 329
313 318 322 326 330 332 333 335 337 339 340 341 343 344 346 347 349 350 351 352 354 355 356 357 357 357 356 357 359 2 4 5 8 13 11 6 4 1 359 356 353 351 348 346 341 337 330 324 317 313 311 305 301 305 303 302 303 305 308 303 298 298 299 305 310 311 313 315 314 315 313 313 318 316 309 309 316 321 319 318 321 324 326 326 326 327 328 329
307 312 317 321 324 326 328 331 332 335 337 338 340 342 343 345 346 347 348 350 351 353 355 356 356 356 355 355 356 359 2 2 5 8 6 4 3 2 360 357 355 351 347 342 339 335 328 322 314 311 310 307 302 302 303 302 306 308 302 296 296 300 300 303 307 308 312 314 311 309 309 313 315 312 310 309 312 316 318 321 322 322 322 322 323 324 325 327
304 308 313 317 320 322 324 326 327 330 333 335 337 339 341 342 343 344 345 347 349 351 353 354 355 356 356 356 356 358 0 1 3 4 2 1 1 1 359 357 355 352 348 342 337 331 324 320 315 310 307 307 306 303 304 305 306 304 296 298 305 305 303 304 306 307 311 310 306 306 310 312 309 311 317 316 312 314 318 321 321 321 321 321 321 322 323 325
301 306 310 313 317 319 320 322 323 325 328 331 334 336 338 339 340 341 342 344 346 348 351 352 354 356 357 359 360 359 360 1 1 0 359 359 359 359 359 356 355 353 349 343 338 332 327 323 318 316 313 309 310 308 307 305 305 301 294 301 310 308 305 305 305 306 309 307 304 308 310 309 308 312 317 318 317 318 318 318 319 320 321 321 321 322 323 324
298 303 307 311 314 317 318 318 319 321 323 327 330 333 335 336 337 338 339 340 343 345 348 349 350 354 356 359 0 359 1 2 360 358 357 358 358 358 357 355 354 353 350 347 344 339 334 327 323 322 315 309 310 310 310 307 303 299 295 300 307 306 304 304 303 304 305 302 303 306 304 302 304 309 312 317 319 318 317 316 317 318 320 321 321 322 322 323
296 300 305 309 312 315 317 317 317 318 320 323 326 330 332 333 334 335 337 338 339 342 345 346 346 349 351 354 355 356 360 359 356 355 356 356 356 355 354 354 353 352 350 349 347 343 337 332 329 324 316 315 314 308 310 310 300 296 300 302 303 303 301 301 301 301 301 299 304 306 301 299 303 309 310 313 317 315 315 314 314 316 318 320 320 321 321 322
293 297 301 305 309 313 315 315 316 316 317 319 322 325 328 330 330 332 333 335 336 339 342 342 342 342 343 347 348 350 354 353 352 353 354 354 353 352 353 354 352 350 349 347 346 343 339 336 333 328 321 319 316 310 312 311 301 299 304 302 301 301 298 299 298 298 298 301 308 307 305 303 303 308 308 308 313 312 312 313 313 314 317 319 319 319 319 319
290 293 297 301 306 309 312 313 314 315 315 316 318 321 324 326 327 327 329 331 333 336 338 339 339 337 338 342 342 344 348 348 349 350 351 350 349 350 351 351 350 349 348 346 346 344 340 336 332 328 324 318 314 312 310 309 305 303 303 301 300 300 298 299 297 296 296 303 309 307 306 303 296 300 302 304 309 309 311 312 312 314 316 317 317 317 317 317
288 291 294 298 302 305 308 310 313 314 314 315 316 318 321 323 324 324 325 327 329 332 334 335 336 335 335 337 338 341 344 345 347 348 348 348 347 347 347 347 348 348 346 344 345 344 340 336 332 328 325 321 317 310 306 308 308 305 304 303 299 295 298 300 298 298 296 301 309 307 303 299 295 296 298 302 307 308 310 311 312 314 316 316 316 316 316 316
286 289 292 295 299 302 305 307 310 311 313 314 315 317 318 320 320 320 321 322 325 328 329 330 330 330 332 334 336 339 340 341 344 344 345 345 344 343 342 343 345 345 344 342 343 342 339 337 334 327 324 322 319 314 310 311 308 306 307 305 301 296 299 299 297 298 297 301 309 309 304 299 296 296 296 300 305 308 309 309 311 313 314 315 315 315 314 316
285 288 291 294 296 299 302 305 307 309 311 313 314 315 316 317 318 317 317 318 322 324 324 326 324 323 327 330 333 334 334 336 338 340 341 341 340 339 339 339 341 342 342 340 340 340 338 337 333 327 325 322 320 318 315 314 310 306 305 304 303 301 300 296 295 297 298 303 308 310 308 302 298 296 296 301 305 308 310 309 310 312 313 314 314 314 314 315
283 287 290 292 294 297 300 303 305 306 308 310 312 313 314 315 315 314 314 314 319 321 319 321 321 319 322 325 326 326 329 332 333 336 337 338 338 337 336 336 337 338 339 338 338 339 338 337 334 328 326 321 319 320 316 314 312 308 308 306 302 303 303 298 298 300 302 304 305 307 306 303 302 298 298 302 305 309 310 310 311 311 313 314 314 313 314 314
281 285 289 291 293 295 298 301 303 305 306 308 310 311 312 313 312 311 311 312 318 319 316 318 318 317 318 319 319 320 324 327 329 332 333 336 336 334 333 333 334 335 336 336 337 338 337 336 334 331 329 325 322 321 318 317 313 308 309 309 305 305 306 302 301 302 305 305 302 304 304 304 303 298 297 301 304 308 308 309 310 311 312 313 313 312 313 314
279 283 286 290 292 294 296 299 301 304 305 307 308 309 310 310 309 308 307 310 317 316 313 315 316 315 314 315 315 316 320 321 324 327 329 331 333 332 330 330 331 331 332 333 335 336 335 335 334 332 332 330 325 322 322 322 316 310 309 311 310 309 307 305 303 302 304 304 301 302 303 303 302 298 298 300 302 305 307 308 309 310 311 312 312 311 313 315
278 281 285 288 290 292 295 297 300 302 304 306 307 307 308 308 307 306 304 309 314 313 311 311 313 312 310 311 312 313 316 318 320 322 324 327 329 329 329 328 328 329 329 330 332 334 334 334 334 333 331 330 327 326 327 326 320 314 312 312 310 309 309 306 303 302 302 301 300 301 301 301 302 299 299 300 301 304 306 307 308 309 310 311 311 311 314 315
277 280 283 286 288 291 293 296 299 301 303 305 306 306 305 305 306 304 304 309 311 309 309 310 311 310 309 310 311 311 313 315 316 318 321 324 326 327 326 325 326 328 327 327 330 332 333 333 333 334 333 330 329 329 326 323 320 314 310 310 308 308 307 305 304 302 300 301 301 301 301 301 302 300 300 301 303 305 307 308 309 309 310 311 310 311 315 315
276 279 282 284 287 290 292 295 298 300 302 304 305 305 302 303 305 299 303 311 309 305 306 309 309 306 307 308 307 308 310 311 313 315 319 323 323 323 322 322 324 325 325 327 330 330 332 333 333 333 333 332 330 327 322 319 318 313 310 310 308 307 305 304 305 302 300 302 301 302 303 303 302 300 301 302 304 307 307 307 308 309 310 311 310 311 314 314
275 278 281 283 286 289 291 294 297 300 302 302 304 303 301 303 301 295 302 309 305 303 304 306 306 302 304 306 305 307 308 309 310 313 318 322 321 321 321 321 321 322 324 327 328 329 332 332 331 332 333 333 331 326 321 318 316 313 311 309 307 306 305 306 307 304 305 305 303 304 304 302 301 299 299 302 304 306 305 306 307 308 310 311 310 311 312 311
274 277 280 282 285 288 290 293 296 299 300 300 302 302 299 301 298 295 302 303 299 302 303 304 305 301 301 303 303 305 306 305 309 313 318 320 319 320 321 321 320 321 323 324 323 326 330 328 328 332 330 330 330 326 321 318 315 312 310 309 308 306 305 308 308 305 306 306 304 304 302 301 302 300 299 301 302 303 303 305 306 308 309 310 310 310 311 312
274 277 280 282 284 287 289 292 295 297 298 298 301 301 298 299 297 297 299 297 296 299 299 301 303 300 300 299 299 302 302 303 307 312 316 319 319 317 318 320 320 320 320 320 321 325 326 324 325 327 325 326 326 324 320 317 315 313 312 311 308 307 308 308 308 308 308 307 304 304 302 302 303 301 300 300 301 303 305 306 307 308 309 309 310 310 311 313
273 277 279 281 284 286 288 291 292 294 295 297 298 298 296 297 297 298 298 296 296 296 297 298 299 299 299 297 296 298 300 302 307 310 314 318 318 316 316 318 318 319 319 320 323 323 321 321 322 322 323 325 324 321 319 316 314 313 312 311 308 310 311 307 308 310 308 305 304 304 302 302 304 304 301 301 303 305 306 307 306 307 308 308 309 310 312 313
273 276 278 281 283 284 287 289 289 290 293 294 295 295 295 296 297 298 297 295 294 295 297 297 297 298 297 295 294 295 298 302 306 309 312 315 316 314 315 317 317 317 317 321 322 317 315 319 321 320 321 322 322 321 319 316 315 313 313 312 310 310 309 306 308 309 307 305 304 305 304 302 303 302 301 303 306 305 304 303 304 306 307 307 308 311 313 314
272 275 277 280 281 283 286 286 286 289 290 291 293 294 295 296 296 298 298 295 294 296 298 297 296 296 295 293 293 295 298 301 304 307 310 314 315 314 314 315 314 314 316 318 318 315 314 318 320 318 318 320 319 318 318 316 314 312 313 314 311 309 307 307 308 309 309 307 307 310 309 307 306 302 301 305 305 303 302 302 304 305 306 308 310 312 313 314
271 273 276 278 280 283 283 282 284 287 288 288 291 292 294 295 296 298 298 295 293 296 299 296 295 295 295 293 291 295 299 300 302 305 308 311 312 313 313 313 312 312 315 316 315 315 315 318 319 317 317 318 317 316 317 317 315 312 311 313 312 309 306 307 308 308 308 306 306 310 307 305 307 303 300 303 303 301 302 304 305 305 307 309 311 312 313 313
270 272 275 276 279 281 280 279 282 285 285 287 289 291 292 293 294 297 298 294 291 295 297 296 295 295 295 294 292 296 299 300 303 303 305 309 311 311 311 311 311 311 314 315 314 314 315 317 317 315 315 316 315 316 316 317 314 311 310 310 310 308 305 306 306 305 305 305 305 305 302 300 302 302 300 300 300 301 302 303 304 305 308 311 311 313 313 312
269 271 274 275 278 278 278 278 280 282 283 285 287 289 290 291 293 296 296 291 291 295 295 294 295 294 293 294 293 295 298 300 302 303 305 308 309 310 309 308 309 310 312 312 310 312 315 315 314 314 315 314 315 316 315 315 313 310 310 309 307 305 304 304 304 304 305 305 305 304 303 302 303 306 306 301 298 300 301 302 304 307 309 311 312 313 313 312
268 270 273 275 276 276 276 277 279 280 282 284 286 286 288 289 291 293 291 288 291 295 295 294 295 293 292 294 292 293 296 298 300 302 304 306 308 309 307 308 310 309 308 306 306 310 313 313 314 316 314 314 316 316 315 313 311 311 312 309 307 304 303 304 303 304 305 303 303 304 302 302 305 307 305 301 300 300 301 303 305 307 309 311 313 313 313 313
267 269 272 274 274 273 275 276 277 278 280 282 283 284 286 287 288 289 285 287 292 293 293 294 294 292 290 292 292 293 295 296 299 302 302 305 307 306 306 309 310 309 307 306 305 307 311 313 314 314 313 315 316 316 314 311 310 313 313 310 308 306 305 305 303 304 305 303 305 307 304 302 306 309 305 302 304 304 302 303 305 307 309 311 313 313 313 314
266 268 270 272 272 272 274 274 275 277 278 280 281 281 283 285 284 281 281 288 292 290 290 291 292 291 290 293 294 295 295 295 298 301 301 303 304 304 306 309 310 310 309 308 307 308 308 310 312 313 314 316 316 315 313 311 311 313 312 311 311 310 309 307 306 306 304 304 307 311 312 306 303 308 308 305 307 307 304 303 304 306 309 311 312 312 313 314
265 266 268 270 270 271 272 273 274 275 276 278 278 279 282 282 277 274 281 289 291 288 289 291 290 290 292 296 295 295 297 297 298 299 301 302 302 302 305 307 309 310 308 308 310 309 307 308 312 315 314 313 314 316 315 313 312 310 310 312 312 314 312 308 308 308 303 304 306 310 314 307 301 303 304 302 306 306 304 303 304 306 309 311 312 312 312 313
264 265 267 268 269 270 270 271 272 273 275 276 276 277 278 276 274 276 280 284 286 286 289 291 291 291 293 294 293 295 298 297 295 298 301 301 300 301 303 304 307 306 304 308 310 308 309 310 312 314 313 311 311 314 314 313 312 307 308 310 309 313 313 307 307 306 304 304 304 307 311 308 305 306 304 303 304 304 303 304 305 307 309 311 311 311 312 313
263 264 265 266 267 268 269 270 270 271 273 273 274 274 272 270 275 280 280 281 282 284 286 289 290 290 291 291 292 295 297 295 294 297 299 299 299 301 302 303 304 303 303 306 307 306 307 309 310 310 310 310 311 313 313 313 311 307 307 307 305 307 306 305 308 306 306 306 304 307 309 307 308 310 310 309 307 305 305 305 306 308 309 310 310 311 313 314
262 263 264 265 266 267 267 268 269 269 270 271 272 270 266 269 276 280 280 281 282 281 283 285 286 288 289 289 291 293 293 293 295 297 296 296 297 299 301 301 301 302 303 304 305 306 304 305 309 309 309 309 311 313 314 313 311 307 307 306 304 303 300 302 305 304 306 307 305 306 305 304 308 309 309 310 307 305 305 306 309 309 309 310 311 312 313 315
261 262 263 264 265 265 265 266 267 268 268 269 268 266 265 271 276 278 280 282 281 280 282 284 285 287 288 289 290 291 293 293 295 296 295 295 295 296 298 301 300 299 300 302 304 306 304 304 308 308 308 309 311 312 311 310 309 307 306 303 302 303 302 302 304 306 307 305 304 306 304 306 309 308 307 306 303 303 305 307 310 310 310 311 311 312 314 315
260 261 262 263 263 263 264 265 265 266 266 266 265 265 268 272 275 277 278 279 281 281 282 283 284 285 287 289 289 290 293 294 293 294 294 295 296 295 296 300 301 297 298 302 303 304 304 303 304 305 306 307 308 309 308 307 306 304 302 302 304 306 305 303 304 308 306 301 303 305 303 304 307 306 306 304 301 302 305 308 309 309 310 310 311 312 314 316
260 261 262 262 261 261 262 263 264 264 265 265 264 266 270 272 274 275 275 276 279 280 279 281 282 283 284 287 289 289 290 291 291 291 293 294 295 295 295 298 301 300 302 303 301 303 305 303 303 304 304 305 306 307 306 305 305 302 299 301 304 305 305 302 302 304 302 300 304 305 302 302 303 304 304 302 301 302 306 308 309 309 310 310 311 313 315 316
259 261 262 261 259 259 260 261 263 263 263 263 264 267 270 272 273 273 272 274 277 277 277 278 280 282 283 285 288 289 287 287 288 290 292 293 294 294 294 296 299 301 303 303 299 301 304 302 303 305 304 304 305 304 302 303 304 302 300 299 300 300 301 300 298 299 300 300 303 305 305 305 304 303 303 302 302 303 306 308 308 308 310 311 312 314 315 316
259 261 262 260 258 258 258 260 261 261 262 263 264 267 270 273 273 271 270 272 274 274 276 278 278 280 283 284 285 286 286 285 287 288 289 290 291 293 293 295 298 300 302 303 301 302 302 299 300 304 304 303 302 301 300 301 301 299 297 295 296 298 299 298 297 297 297 298 301 303 305 306 306 306 305 304 304 303 304 306 306 307 310 311 313 314 315 316
258 261 262 259 257 257 256 259 260 261 262 264 265 268 270 272 272 271 269 269 271 273 274 276 278 280 282 283 283 284 285 285 286 287 288 288 289 291 293 295 296 297 300 302 300 300 300 298 298 300 301 299 300 301 301 300 299 297 295 293 293 294 296 297 297 297 295 295 297 299 301 303 305 304 304 304 303 303 304 305 306 308 311 312 313 315 316 317
257 260 262 259 256 255 255 259 261 261 262 264 265 268 269 270 271 271 269 269 270 272 274 275 277 279 281 282 283 283 283 284 285 285 286 286 286 289 293 294 293 293 296 298 298 299 300 300 298 297 298 299 300 301 301 300 298 297 295 295 294 293 292 292 294 298 298 295 296 296 297 301 304 302 303 303 301 302 304 306 307 309 311 312 313 315 316 317
257 260 261 258 255 254 256 260 260 261 263 265 266 266 267 268 270 269 269 269 270 272 273 275 277 278 279 281 281 281 281 283 284 283 284 285 286 289 293 292 289 292 295 296 298 300 300 300 298 298 299 299 299 299 299 299 298 296 294 293 292 291 290 290 293 298 298 296 297 296 295 301 305 303 302 302 299 300 304 306 308 309 310 312 313 315 316 318
258 259 260 258 255 254 257 260 260 261 264 265 265 266 266 267 267 267 267 267 269 271 274 276 277 278 279 280 279 279 280 282 283 283 283 284 287 292 294 291 288 292 294 294 296 297 297 297 297 299 301 300 299 299 297 296 295 294 293 292 290 290 292 294 296 297 296 294 293 291 293 300 303 301 301 300 299 300 304 306 308 309 310 312 314 315 317 318
257 258 259 257 255 255 258 261 262 263 263 263 264 265 266 267 266 265 266 266 267 269 273 277 278 278 279 279 278 279 279 279 282 284 284 285 288 292 294 292 291 292 293 294 295 294 294 294 293 294 296 296 297 298 297 296 294 293 292 289 288 287 288 292 295 293 293 293 290 287 292 298 299 298 299 299 299 301 303 305 307 309 310 312 314 315 317 318
255 257 258 257 256 257 260 262 262 263 262 262 264 265 264 265 266 265 264 266 267 268 272 276 278 278 278 277 278 279 279 278 279 282 284 286 289 291 292 292 293 292 292 294 295 294 294 293 288 286 286 288 292 295 295 295 294 293 292 288 286 286 286 289 291 288 291 295 291 289 292 295 295 296 297 298 299 300 302 304 307 309 310 312 314 315 317 318
254 256 256 257 258 259 260 261 261 262 263 262 264 265 263 264 266 265 263 264 267 268 271 275 275 275 276 276 278 279 280 279 278 280 282 284 287 289 290 291 291 291 291 292 293 293 292 290 286 283 283 285 288 290 291 291 290 291 291 288 286 287 287 285 284 285 290 294 292 292 293 293 295 297 297 297 299 300 301 304 307 308 310 312 314 316 317 318
254 257 255 255 257 259 260 260 261 262 262 261 263 265 264 263 264 265 264 266 268 268 270 273 272 271 273 275 277 279 279 279 279 280 281 283 285 286 288 290 290 289 291 291 292 292 291 289 287 284 283 285 286 286 287 288 288 289 289 287 286 286 285 282 282 284 287 287 290 294 294 292 295 297 296 297 299 299 301 304 306 308 310 312 315 316 317 318
253 257 256 254 257 259 259 258 258 259 260 261 262 263 263 262 263 264 266 269 270 270 269 271 272 271 272 274 275 276 277 278 279 281 282 282 283 284 287 289 288 288 290 291 291 291 289 288 287 285 285 286 285 285 286 286 287 288 286 285 286 286 284 283 283 285 284 284 288 292 292 292 295 296 295 298 299 299 301 304 306 309 311 313 314 315 316 317
253 255 256 256 259 260 259 257 257 260 261 261 261 262 262 262 263 264 265 266 269 271 269 269 273 274 273 273 272 273 276 277 278 281 282 281 283 284 286 287 287 288 288 288 289 289 287 287 288 286 286 286 286 286 286 287 287 287 286 286 286 285 284 283 283 284 284 284 287 289 290 292 296 296 296 298 299 300 302 304 307 309 311 313 314 315 316 317
253 254 254 257 260 260 260 260 259 261 262 260 261 262 262 263 263 265 266 265 266 269 269 270 274 275 274 273 271 273 276 277 278 280 279 278 280 282 284 286 285 285 286 286 287 287 285 285 288 287 286 287 288 287 287 289 289 287 286 285 283 282 283 283 282 283 282 284 287 288 289 293 298 299 298 298 299 301 302 304 307 309 311 312 314 314 315 316
252 254 253 255 260 260 259 261 260 260 262 262 262 263 263 264 265 265 266 267 265 266 268 271 273 274 274 273 273 275 278 279 280 282 281 280 282 283 283 283 281 281 283 284 286 287 284 284 285 285 285 289 291 290 291 294 293 290 289 286 282 281 282 283 283 283 282 284 287 288 290 294 300 301 298 298 300 301 303 305 307 309 310 312 313 313 315 317